Hourly Weather Vedernica

Today, 12 June, Saturday

Time Temperature Precipitation Wind Pressure Humidity
00:00 +15°C° 0 mm 2 mps 747 mmHg 75%
01:00 +15°C° 0 mm 2 mps 746 mmHg 74%
02:00 +16°C° 0 mm 2 mps 746 mmHg 73%
03:00 +16°C° 0 mm 2 mps 746 mmHg 74%
04:00 +16°C° 0 mm 2 mps 745 mmHg 75%
05:00 +16°C° 0 mm 3 mps 745 mmHg 76%
06:00 +17°C° 0 mm 3 mps 745 mmHg 74%
07:00 +18°C° 0 mm 3 mps 745 mmHg 71%
08:00 +19°C° 0 mm 4 mps 745 mmHg 69%
09:00 +18°C° 0.3 mm 3 mps 745 mmHg 73%
10:00 +18°C° 0.3 mm 3 mps 744 mmHg 76%
11:00 +18°C° 0.3 mm 3 mps 744 mmHg 80%
12:00 +18°C° 0.2 mm 3 mps 744 mmHg 81%
13:00 +18°C° 0.2 mm 3 mps 743 mmHg 82%
14:00 +18°C° 0 mm 3 mps 743 mmHg 85%
15:00 +19°C° 0.6 mm 3 mps 743 mmHg 85%
16:00 +19°C° 0.6 mm 3 mps 742 mmHg 85%
17:00 +19°C° 0.6 mm 3 mps 742 mmHg 85%
18:00 +18°C° 0.6 mm 2 mps 741 mmHg 88%
19:00 +17°C° 0.6 mm 2 mps 741 mmHg 91%
20:00 +16°C° 0.6 mm 1 mps 741 mmHg 94%
21:00 +16°C° 0.1 mm 1 mps 741 mmHg 94%
22:00 +15°C° 0.1 mm 1 mps 741 mmHg 95%
23:00 +14°C° 0.1 mm 1 mps 740 mmHg 95%

Tomorrow, 13 June, Sunday

Time Temperature Precipitation Wind Pressure Humidity
00:00 +14°C° 0 mm 2 mps 740 mmHg 95%
01:00 +14°C° 0 mm 2 mps 740 mmHg 96%
02:00 +13°C° 0 mm 2 mps 740 mmHg 96%
03:00 +14°C° 0 mm 2 mps 740 mmHg 95%
04:00 +14°C° 0 mm 2 mps 740 mmHg 94%
05:00 +15°C° 0 mm 1 mps 740 mmHg 94%
06:00 +17°C° 0 mm 2 mps 740 mmHg 86%
07:00 +18°C° 0 mm 2 mps 740 mmHg 79%
08:00 +20°C° 0 mm 2 mps 740 mmHg 72%
09:00 +21°C° 0.3 mm 2 mps 740 mmHg 66%
10:00 +23°C° 0.3 mm 2 mps 740 mmHg 60%
11:00 +24°C° 0.3 mm 2 mps 740 mmHg 53%
12:00 +25°C° 0 mm 2 mps 740 mmHg 50%
13:00 +25°C° 0 mm 2 mps 740 mmHg 47%
14:00 +26°C° 0 mm 2 mps 740 mmHg 44%
15:00 +25°C° 0 mm 2 mps 740 mmHg 51%
16:00 +24°C° 0 mm 2 mps 740 mmHg 59%
17:00 +23°C° 0 mm 2 mps 741 mmHg 66%
18:00 +21°C° 0 mm 2 mps 741 mmHg 69%
19:00 +20°C° 0 mm 2 mps 741 mmHg 72%
20:00 +20°C° 0 mm 1 mps 741 mmHg 76%
21:00 +19°C° 0 mm 2 mps 741 mmHg 74%
22:00 +18°C° 0 mm 2 mps 742 mmHg 73%
23:00 +18°C° 0 mm 2 mps 742 mmHg 71%

Day after tomorrow, 14 June, Monday

Time Temperature Precipitation Wind Pressure Humidity
00:00 +17°C° 0 mm 2 mps 742 mmHg 74%
01:00 +17°C° 0 mm 2 mps 742 mmHg 76%
02:00 +16°C° 0 mm 2 mps 743 mmHg 79%
03:00 +17°C° 0 mm 2 mps 743 mmHg 79%
04:00 +17°C° 0 mm 2 mps 743 mmHg 80%
05:00 +18°C° 0 mm 2 mps 744 mmHg 80%
06:00 +19°C° 0 mm 2 mps 744 mmHg 76%
07:00 +20°C° 0 mm 2 mps 745 mmHg 71%
08:00 +23°C° 0 mm 2 mps 745 mmHg 66%
09:00 +24°C° 0.2 mm 2 mps 745 mmHg 64%
10:00 +24°C° 0.2 mm 3 mps 745 mmHg 63%
11:00 +25°C° 0.2 mm 3 mps 746 mmHg 62%
12:00 +25°C° 0.5 mm 4 mps 746 mmHg 66%
13:00 +23°C° 0.5 mm 4 mps 746 mmHg 69%
14:00 +23°C° 0.5 mm 4 mps 746 mmHg 73%
15:00 +24°C° 0.2 mm 3 mps 746 mmHg 71%
16:00 +24°C° 0.2 mm 3 mps 746 mmHg 70%
17:00 +22°C° 0.2 mm 3 mps 746 mmHg 68%
18:00 +21°C° 0 mm 2 mps 746 mmHg 72%
19:00 +19°C° 0 mm 2 mps 747 mmHg 77%
20:00 +19°C° 0 mm 1 mps 747 mmHg 81%
21:00 +17°C° 0 mm 2 mps 747 mmHg 81%
22:00 +16°C° 0 mm 2 mps 747 mmHg 82%
23:00 +15°C° 0 mm 2 mps 747 mmHg 82%

15 June, Tuesday

Time Temperature Precipitation Wind Pressure Humidity
00:00 +14°C° 0 mm 1 mps 747 mmHg 82%
01:00 +13°C° 0 mm 1 mps 747 mmHg 81%
02:00 +13°C° 0 mm 1 mps 747 mmHg 81%
03:00 +14°C° 0 mm 1 mps 747 mmHg 79%
04:00 +15°C° 0 mm 1 mps 747 mmHg 77%
05:00 +15°C° 0 mm 0 mps 747 mmHg 76%
06:00 +18°C° 0 mm 1 mps 747 mmHg 75%
07:00 +19°C° 0 mm 1 mps 746 mmHg 75%
08:00 +19°C° 0 mm 1 mps 746 mmHg 74%
09:00 +20°C° 0 mm 1 mps 746 mmHg 71%
10:00 +21°C° 0 mm 1 mps 746 mmHg 68%
11:00 +22°C° 0 mm 1 mps 746 mmHg 65%
12:00 +23°C° 0.1 mm 2 mps 745 mmHg 62%
13:00 +24°C° 0.1 mm 3 mps 745 mmHg 59%
14:00 +24°C° 0.1 mm 3 mps 745 mmHg 56%
15:00 +24°C° 0 mm 3 mps 744 mmHg 56%
16:00 +24°C° 0 mm 3 mps 744 mmHg 57%
17:00 +24°C° 0 mm 3 mps 744 mmHg 57%
18:00 +21°C° 0 mm 2 mps 744 mmHg 62%
19:00 +20°C° 0 mm 2 mps 744 mmHg 67%
20:00 +18°C° 0 mm 2 mps 744 mmHg 71%
21:00 +17°C° 0 mm 2 mps 744 mmHg 74%
22:00 +16°C° 0 mm 2 mps 744 mmHg 77%
23:00 +15°C° 0 mm 2 mps 744 mmHg 80%

16 June, Wednesday

Time Temperature Precipitation Wind Pressure Humidity
00:00 +15°C° 0 mm 2 mps 744 mmHg 84%
01:00 +15°C° 0 mm 2 mps 744 mmHg 88%
02:00 +15°C° 0 mm 2 mps 745 mmHg 93%
03:00 +15°C° 0 mm 2 mps 745 mmHg 93%
04:00 +15°C° 0 mm 2 mps 745 mmHg 93%
05:00 +15°C° 0 mm 2 mps 745 mmHg 93%
06:00 +16°C° 0 mm 3 mps 746 mmHg 82%
07:00 +18°C° 0 mm 3 mps 746 mmHg 71%
08:00 +19°C° 0 mm 4 mps 746 mmHg 59%
09:00 +20°C° 0 mm 4 mps 746 mmHg 53%
10:00 +21°C° 0 mm 4 mps 746 mmHg 46%
11:00 +21°C° 0 mm 5 mps 747 mmHg 39%
12:00 +22°C° 0 mm 5 mps 747 mmHg 38%
13:00 +22°C° 0 mm 5 mps 747 mmHg 37%
14:00 +22°C° 0 mm 5 mps 747 mmHg 36%
15:00 +21°C° 0 mm 5 mps 748 mmHg 39%
16:00 +21°C° 0 mm 4 mps 748 mmHg 41%
17:00 +20°C° 0 mm 4 mps 748 mmHg 44%
18:00 +18°C° 0 mm 3 mps 748 mmHg 50%
19:00 +16°C° 0 mm 3 mps 749 mmHg 55%
20:00 +15°C° 0 mm 2 mps 749 mmHg 61%
21:00 +13°C° 0 mm 2 mps 750 mmHg 61%
22:00 +12°C° 0 mm 2 mps 750 mmHg 62%
23:00 +10°C° 0 mm 2 mps 751 mmHg 62%

17 June, Thursday

Time Temperature Precipitation Wind Pressure Humidity
00:00 +9°C° 0 mm 2 mps 751 mmHg 63%
01:00 +9°C° 0 mm 2 mps 752 mmHg 64%
02:00 +8°C° 0 mm 2 mps 752 mmHg 65%
03:00 +9°C° 0 mm 2 mps 753 mmHg 64%
04:00 +9°C° 0 mm 2 mps 753 mmHg 63%
05:00 +10°C° 0 mm 2 mps 753 mmHg 63%
06:00 +12°C° 0 mm 3 mps 753 mmHg 56%
07:00 +14°C° 0 mm 3 mps 754 mmHg 50%
08:00 +17°C° 0 mm 4 mps 754 mmHg 44%
09:00 +18°C° 0 mm 4 mps 754 mmHg 41%
10:00 +19°C° 0 mm 4 mps 754 mmHg 39%
11:00 +20°C° 0 mm 4 mps 754 mmHg 37%
12:00 +21°C° 0 mm 4 mps 754 mmHg 36%
13:00 +22°C° 0 mm 4 mps 754 mmHg 36%
14:00 +22°C° 0 mm 4 mps 754 mmHg 36%
15:00 +22°C° 0 mm 3 mps 754 mmHg 39%
16:00 +22°C° 0 mm 3 mps 754 mmHg 43%
17:00 +23°C° 0 mm 2 mps 754 mmHg 46%
18:00 +20°C° 0 mm 2 mps 755 mmHg 52%
19:00 +19°C° 0 mm 1 mps 755 mmHg 57%
20:00 +18°C° 0 mm 1 mps 755 mmHg 63%
21:00 +16°C° 0 mm 1 mps 755 mmHg 64%
22:00 +15°C° 0 mm 1 mps 755 mmHg 65%
23:00 +14°C° 0 mm 1 mps 755 mmHg 66%
Show more